| time (UTC) | temp F | wind direction | speed MPH | gust MPH | rain 1hr in | rain 24hr in | rain mn in | humidity % | barometer mb |
| 20260509043106 | 69 | 270 | 0.0 | 3.0 | 0.00 | 0.27 | 0.27 | 84 | 1012.4 |
| 20260509042602 | 70 | 135 | 1.0 | 4.0 | 0.00 | 0.27 | 0.27 | 84 | 1012.4 |
| 20260509042033 | 70 | 225 | 3.0 | 4.0 | 0.00 | 0.27 | 0.27 | 83 | 1012.5 |
| 20260509041502 | 70 | 158 | 2.0 | 3.0 | 0.00 | 0.27 | 0.27 | 83 | 1012.5 |
| 20260509040959 | 70 | 158 | 1.0 | 3.0 | 0.00 | 0.27 | 0.27 | 83 | 1012.3 |
| 20260509040449 | 70 | 158 | 3.0 | 4.0 | 0.00 | 0.27 | 0.27 | 83 | 1012.3 |
| 20260509035907 | 71 | 158 | 3.0 | 4.0 | 0.00 | 0.27 | 0.27 | 82 | 1013.1 |
| 20260509035405 | 72 | 202 | 2.0 | 4.0 | 0.00 | 0.27 | 0.27 | 81 | 1013.1 |
| 20260509034901 | 72 | 180 | 0.0 | 2.0 | 0.00 | 0.27 | 0.27 | 79 | 1013.1 |
| 20260509034355 | 72 | 202 | 0.0 | 0.0 | 0.00 | 0.27 | 0.27 | 79 | 1013.6 |
| 20260509033845 | 72 | 270 | 0.0 | 0.0 | 0.00 | 0.27 | 0.27 | 79 | 1013.6 |
| 20260509033316 | 72 | 270 | 0.0 | 0.0 | 0.00 | 0.27 | 0.27 | 79 | 1013.1 |
| 20260509032801 | 72 | 225 | 0.0 | 0.0 | 0.00 | 0.27 | 0.27 | 79 | 1013.1 |
| 20260509032756 | 72 | 112 | 0.0 | 0.0 | 0.00 | 0.27 | 0.27 | 79 | 1012.9 |
| 20260509031754 | 72 | 225 | 0.0 | 0.0 | 0.00 | 0.27 | 0.27 | 79 | 1012.9 |
| 20260509031242 | 72 | 158 | 0.0 | 2.0 | 0.00 | 0.27 | 0.27 | 79 | 1012.9 |
| 20260509030949 | 71 | 158 | 1.0 | 2.0 | 0.00 | 0.27 | 0.27 | 79 | 1013.0 |
| 20260509030223 | 71 | 180 | 0.0 | 0.0 | 0.00 | 0.27 | 0.27 | 79 | 1013.0 |
| 20260509025729 | 71 | 180 | 0.0 | 0.0 | 0.00 | 0.27 | 0.27 | 79 | 1012.7 |
| 20260509025209 | 71 | 90 | 0.0 | 1.0 | 0.00 | 0.27 | 0.27 | 79 | 1012.7 |
| 20260509024654 | 71 | 315 | 0.0 | 3.0 | 0.00 | 0.27 | 0.27 | 79 | 1012.2 |
| 20260509024150 | 71 | 202 | 2.0 | 3.0 | 0.00 | 0.27 | 0.27 | 79 | 1012.2 |
| 20260509023923 | 71 | 202 | 1.0 | 3.0 | 0.00 | 0.27 | 0.27 | 79 | 1012.2 |
| 20260509023141 | 71 | 180 | 2.0 | 3.0 | 0.00 | 0.27 | 0.27 | 79 | 1011.8 |
| 20260509022906 | 71 | 225 | 1.0 | 5.0 | 0.00 | 0.27 | 0.27 | 79 | 1011.8 |
| 20260509022116 | 72 | 112 | 2.0 | 5.0 | 0.00 | 0.27 | 0.27 | 79 | 1011.7 |
| 20260509021611 | 72 | 112 | 2.0 | 3.0 | 0.00 | 0.27 | 0.27 | 78 | 1011.7 |
| 20260509021100 | 72 | 270 | 1.0 | 2.0 | 0.00 | 0.27 | 0.27 | 78 | 1011.7 |
| 20260509020813 | 72 | 158 | 2.0 | 2.0 | 0.00 | 0.27 | 0.27 | 78 | 1011.7 |
| 20260509020042 | 72 | 158 | 1.0 | 2.0 | 0.00 | 0.27 | 0.27 | 78 | 1011.7 |
| 20260509015513 | 72 | 225 | 2.0 | 3.0 | 0.00 | 0.27 | 0.27 | 78 | 1011.6 |
| 20260509015007 | 72 | 225 | 2.0 | 3.0 | 0.00 | 0.27 | 0.27 | 77 | 1011.6 |
| 20260509014500 | 72 | 158 | 2.0 | 2.0 | 0.00 | 0.27 | 0.27 | 77 | 1011.4 |
| 20260509013945 | 72 | 202 | 1.0 | 2.0 | 0.00 | 0.27 | 0.27 | 77 | 1011.4 |
| 20260509013438 | 72 | 180 | 0.0 | 2.0 | 0.00 | 0.27 | 0.27 | 77 | 1011.5 |
| 20260509012935 | 72 | 202 | 1.0 | 2.0 | 0.00 | 0.27 | 0.27 | 77 | 1011.5 |
| 20260509012424 | 72 | 158 | 0.0 | 2.0 | 0.00 | 0.27 | 0.27 | 77 | 1011.5 |
| 20260509012133 | 72 | 202 | 1.0 | 3.0 | 0.00 | 0.27 | 0.27 | 76 | 1011.4 |
| 20260509011405 | 73 | 158 | 2.0 | 3.0 | 0.00 | 0.27 | 0.27 | 76 | 1011.4 |
| 20260509010902 | 73 | 158 | 1.0 | 3.0 | 0.00 | 0.27 | 0.27 | 75 | 1011.5 |
| 20260509010351 | 73 | 158 | 1.0 | 3.0 | 0.00 | 0.27 | 0.27 | 75 | 1011.5 |
| 20260509005827 | 73 | 202 | 2.0 | 3.0 | 0.00 | 0.27 | 0.27 | 75 | 1011.1 |
| 20260509005254 | 74 | 158 | 2.0 | 3.0 | 0.00 | 0.27 | 0.27 | 74 | 1011.1 |
| 20260509004723 | 74 | 225 | 2.0 | 4.0 | 0.00 | 0.27 | 0.27 | 74 | 1010.7 |
| 20260509004209 | 74 | 112 | 3.0 | 4.0 | 0.00 | 0.27 | 0.27 | 73 | 1010.7 |
| 20260509003626 | 74 | 112 | 2.0 | 4.0 | 0.00 | 0.27 | 0.27 | 73 | 1010.7 |
| 20260509003110 | 75 | 90 | 3.0 | 4.0 | 0.00 | 0.27 | 0.27 | 73 | 1010.8 |
| 20260509002606 | 75 | 158 | 2.0 | 4.0 | 0.00 | 0.27 | 0.27 | 72 | 1010.8 |
| 20260509002035 | 75 | 112 | 2.0 | 3.0 | 0.00 | 0.27 | 0.27 | 72 | 1010.8 |
| 20260509001749 | 75 | 202 | 2.0 | 4.0 | 0.00 | 0.27 | 0.27 | 71 | 1010.8 |
| 20260509001023 | 76 | 202 | 2.0 | 4.0 | 0.00 | 0.27 | 0.27 | 71 | 1010.9 |
| 20260509000455 | 76 | 158 | 2.0 | 3.0 | 0.00 | 0.27 | 0.27 | 70 | 1010.9 |
| 20260508235925 | 76 | 90 | 2.0 | 3.0 | 0.00 | 0.27 | 0.27 | 70 | 1011.3 |
| 20260508235411 | 76 | 180 | 2.0 | 3.0 | 0.00 | 0.27 | 0.27 | 70 | 1011.3 |
| 20260508235350 | 76 | 180 | 2.0 | 4.0 | 0.00 | 0.27 | 0.27 | 70 | 1011.3 |
| 20260508234400 | 76 | 112 | 2.0 | 4.0 | 0.00 | 0.27 | 0.27 | 69 | 1011.3 |
| 20260508233850 | 77 | 135 | 3.0 | 4.0 | 0.00 | 0.27 | 0.27 | 68 | 1011.3 |
| 20260508233321 | 77 | 338 | 3.0 | 4.0 | 0.00 | 0.27 | 0.27 | 68 | 1011.4 |
| 20260508232807 | 78 | 180 | 3.0 | 5.0 | 0.00 | 0.27 | 0.27 | 67 | 1011.4 |
| 20260508232501 | 78 | 68 | 2.0 | 4.0 | 0.00 | 0.27 | 0.27 | 67 | 1011.3 |
| 20260508232445 | 78 | 112 | 3.0 | 5.0 | 0.00 | 0.27 | 0.27 | 67 | 1011.3 |
| 20260508231247 | 78 | 90 | 2.0 | 4.0 | 0.00 | 0.27 | 0.27 | 67 | 1011.3 |
| 20260508231000 | 78 | 270 | 2.0 | 3.0 | 0.00 | 0.27 | 0.27 | 67 | 1011.5 |
| 20260508230228 | 79 | 202 | 2.0 | 3.0 | 0.00 | 0.27 | 0.27 | 67 | 1011.5 |
| 20260508225714 | 79 | 180 | 2.0 | 3.0 | 0.00 | 0.27 | 0.27 | 67 | 1011.3 |
| 20260508225433 | 79 | 202 | 3.0 | 4.0 | 0.00 | 0.27 | 0.27 | 67 | 1011.3 |
| 20260508224645 | 79 | 180 | 3.0 | 4.0 | 0.00 | 0.27 | 0.27 | 67 | 1011.4 |
| 20260508224130 | 79 | 45 | 3.0 | 4.0 | 0.00 | 0.27 | 0.27 | 67 | 1011.4 |
| 20260508223618 | 79 | 90 | 2.0 | 4.0 | 0.00 | 0.27 | 0.27 | 67 | 1011.4 |
| 20260508223057 | 79 | 180 | 3.0 | 4.0 | 0.00 | 0.27 | 0.27 | 67 | 1011.3 |
| 20260508222542 | 79 | 292 | 2.0 | 4.0 | 0.00 | 0.27 | 0.27 | 68 | 1011.3 |
| 20260508222306 | 79 | 248 | 2.0 | 4.0 | 0.00 | 0.27 | 0.27 | 68 | 1011.3 |
| 20260508221757 | 79 | 90 | 3.0 | 5.0 | 0.00 | 0.27 | 0.27 | 68 | 1011.3 |
| 20260508221022 | 79 | 112 | 3.0 | 5.0 | 0.00 | 0.27 | 0.27 | 67 | 1011.1 |
| 20260508220507 | 79 | 225 | 2.0 | 4.0 | 0.00 | 0.27 | 0.27 | 67 | 1011.1 |
| 20260508220008 | 78 | 202 | 2.0 | 4.0 | 0.00 | 0.27 | 0.27 | 66 | 1011.1 |
| 20260508215439 | 79 | 45 | 3.0 | 4.0 | 0.00 | 0.27 | 0.27 | 66 | 1011.1 |
| 20260508214910 | 78 | 180 | 2.0 | 4.0 | 0.00 | 0.27 | 0.27 | 66 | 1011.1 |
| 20260508214620 | 78 | 270 | 3.0 | 5.0 | 0.00 | 0.27 | 0.27 | 65 | 1011.0 |
| 20260508213850 | 79 | 225 | 3.0 | 5.0 | 0.00 | 0.27 | 0.27 | 65 | 1011.0 |
| 20260508213347 | 79 | 90 | 3.0 | 4.0 | 0.00 | 0.27 | 0.27 | 65 | 1011.4 |
| 20260508212836 | 80 | 180 | 3.0 | 6.0 | 0.00 | 0.27 | 0.27 | 64 | 1011.4 |
| 20260508212307 | 79 | 68 | 4.0 | 6.0 | 0.00 | 0.27 | 0.27 | 64 | 1011.7 |
| 20260508211752 | 79 | 158 | 3.0 | 5.0 | 0.00 | 0.27 | 0.27 | 65 | 1011.7 |
| 20260508211248 | 78 | 112 | 3.0 | 5.0 | 0.00 | 0.27 | 0.27 | 66 | 1011.7 |
| 20260508210719 | 79 | 90 | 2.0 | 5.0 | 0.00 | 0.27 | 0.27 | 67 | 1012.4 |
| 20260508210216 | 78 | 225 | 3.0 | 4.0 | 0.00 | 0.27 | 0.27 | 67 | 1012.4 |
| 20260508205705 | 79 | 225 | 2.0 | 4.0 | 0.00 | 0.27 | 0.27 | 65 | 1012.7 |
| 20260508205135 | 78 | 202 | 3.0 | 5.0 | 0.00 | 0.27 | 0.27 | 64 | 1012.7 |
| 20260508204554 | 79 | 202 | 3.0 | 5.0 | 0.00 | 0.27 | 0.27 | 63 | 1013.0 |
| 20260508204037 | 79 | 158 | 3.0 | 4.0 | 0.00 | 0.27 | 0.27 | 63 | 1013.0 |
| 20260508203508 | 80 | 180 | 3.0 | 4.0 | 0.00 | 0.27 | 0.27 | 61 | 1013.2 |
| 20260508202940 | 81 | 180 | 2.0 | 6.0 | 0.00 | 0.27 | 0.27 | 61 | 1013.2 |
| 20260508202424 | 81 | 338 | 3.0 | 6.0 | 0.00 | 0.27 | 0.27 | 62 | 1013.2 |
| 20260508201911 | 80 | 202 | 3.0 | 4.0 | 0.00 | 0.27 | 0.27 | 63 | 1013.0 |
| 20260508201351 | 80 | 180 | 3.0 | 4.0 | 0.00 | 0.27 | 0.27 | 62 | 1013.0 |
| 20260508201043 | 80 | 112 | 3.0 | 4.0 | 0.00 | 0.27 | 0.27 | 62 | 1013.1 |
| 20260508200254 | 81 | 158 | 2.0 | 4.0 | 0.00 | 0.27 | 0.27 | 62 | 1013.1 |
| 20260508195748 | 81 | 112 | 3.0 | 4.0 | 0.00 | 0.27 | 0.27 | 61 | 1013.2 |
| 20260508195501 | 81 | 158 | 2.0 | 4.0 | 0.00 | 0.27 | 0.27 | 61 | 1013.2 |
| 20260508194709 | 81 | 22 | 3.0 | 4.0 | 0.00 | 0.27 | 0.27 | 61 | 1013.3 |
| 20260508194141 | 81 | 225 | 2.0 | 4.0 | 0.00 | 0.27 | 0.27 | 60 | 1013.3 |
| 20260508193558 | 82 | 180 | 2.0 | 4.0 | 0.00 | 0.27 | 0.27 | 59 | 1013.5 |
| 20260508193042 | 82 | 225 | 2.0 | 4.0 | 0.00 | 0.27 | 0.27 | 60 | 1013.5 |
| 20260508192513 | 80 | 68 | 3.0 | 4.0 | 0.00 | 0.27 | 0.27 | 59 | 1013.5 |
| 20260508191931 | 82 | 270 | 3.0 | 4.0 | 0.00 | 0.27 | 0.27 | 59 | 1013.6 |
| 20260508191429 | 82 | 270 | 2.0 | 3.0 | 0.00 | 0.27 | 0.27 | 57 | 1013.6 |
| 20260508190917 | 84 | 180 | 2.0 | 5.0 | 0.00 | 0.27 | 0.27 | 57 | 1013.7 |
| 20260508190409 | 82 | 225 | 4.0 | 5.0 | 0.00 | 0.27 | 0.27 | 57 | 1013.7 |
| 20260508185857 | 81 | 158 | 2.0 | 4.0 | 0.00 | 0.27 | 0.27 | 58 | 1013.6 |
| 20260508185341 | 81 | 112 | 2.0 | 3.0 | 0.00 | 0.27 | 0.27 | 59 | 1013.6 |
| 20260508184811 | 81 | 180 | 3.0 | 4.0 | 0.00 | 0.27 | 0.27 | 58 | 1013.8 |
| 20260508184257 | 80 | 248 | 2.0 | 4.0 | 0.00 | 0.27 | 0.27 | 59 | 1013.8 |
| 20260508183753 | 80 | 90 | 2.0 | 3.0 | 0.00 | 0.27 | 0.27 | 59 | 1013.8 |
| 20260508183248 | 80 | 270 | 2.0 | 3.0 | 0.00 | 0.27 | 0.27 | 58 | 1014.1 |
| 20260508182738 | 81 | 225 | 2.0 | 4.0 | 0.00 | 0.27 | 0.27 | 58 | 1014.1 |
| 20260508182451 | 80 | 202 | 3.0 | 4.0 | 0.00 | 0.27 | 0.27 | 58 | 1014.3 |
| 20260508181719 | 80 | 158 | 2.0 | 5.0 | 0.00 | 0.27 | 0.27 | 59 | 1014.3 |
| 20260508181204 | 80 | 135 | 3.0 | 5.0 | 0.00 | 0.27 | 0.27 | 60 | 1014.3 |
| 20260508180651 | 80 | 158 | 3.0 | 5.0 | 0.00 | 0.27 | 0.27 | 59 | 1014.5 |
| 20260508180134 | 81 | 180 | 3.0 | 5.0 | 0.00 | 0.27 | 0.27 | 59 | 1014.5 |
| 20260508175625 | 81 | 338 | 2.0 | 5.0 | 0.00 | 0.27 | 0.27 | 58 | 1014.7 |
| 20260508175557 | 80 | 202 | 3.0 | 4.0 | 0.00 | 0.27 | 0.27 | 58 | 1014.7 |
| 20260508174611 | 80 | 225 | 3.0 | 4.0 | 0.00 | 0.27 | 0.27 | 58 | 1014.8 |
| 20260508174048 | 80 | 225 | 3.0 | 4.0 | 0.00 | 0.27 | 0.27 | 58 | 1014.8 |
| 20260508173546 | 79 | 112 | 2.0 | 3.0 | 0.00 | 0.27 | 0.27 | 58 | 1015.1 |
| 20260508173041 | 79 | 180 | 2.0 | 4.0 | 0.00 | 0.27 | 0.27 | 59 | 1015.1 |
| 20260508172537 | 79 | 68 | 2.0 | 4.0 | 0.00 | 0.27 | 0.27 | 60 | 1015.1 |
| 20260508172028 | 79 | 158 | 3.0 | 4.0 | 0.00 | 0.27 | 0.27 | 60 | 1015.4 |
| 20260508171513 | 76 | 248 | 2.0 | 3.0 | 0.00 | 0.27 | 0.27 | 63 | 1015.4 |
| 20260508170959 | 77 | 45 | 2.0 | 4.0 | 0.00 | 0.27 | 0.27 | 62 | 1015.8 |
| 20260508170716 | 77 | 112 | 2.0 | 4.0 | 0.00 | 0.27 | 0.27 | 62 | 1015.8 |
| 20260508165954 | 77 | 315 | 2.0 | 4.0 | 0.00 | 0.27 | 0.27 | 63 | 1015.9 |
| 20260508165425 | 75 | 225 | 3.0 | 4.0 | 0.00 | 0.27 | 0.27 | 63 | 1015.9 |
| 20260508164909 | 76 | 202 | 3.0 | 4.0 | 0.00 | 0.27 | 0.27 | 64 | 1015.9 |
| 20260508164404 | 75 | 68 | 2.0 | 4.0 | 0.00 | 0.27 | 0.27 | 66 | 1016.2 |
| 20260508163900 | 75 | 225 | 2.0 | 4.0 | 0.00 | 0.27 | 0.27 | 65 | 1016.2 |
| 20260508163351 | 73 | 202 | 2.0 | 3.0 | 0.00 | 0.27 | 0.27 | 67 | 1016.6 |
| 20260508163052 | 73 | 225 | 2.0 | 3.0 | 0.00 | 0.27 | 0.27 | 67 | 1016.6 |
| 20260508162515 | 73 | 112 | 2.0 | 3.0 | 0.00 | 0.27 | 0.27 | 67 | 1016.6 |
| 20260508161741 | 72 | 22 | 2.0 | 3.0 | 0.00 | 0.27 | 0.27 | 67 | 1016.6 |
| 20260508161155 | 72 | 68 | 2.0 | 3.0 | 0.00 | 0.27 | 0.27 | 68 | 1016.4 |
| 20260508160640 | 72 | 202 | 2.0 | 4.0 | 0.00 | 0.27 | 0.27 | 70 | 1016.4 |
| 20260508160134 | 72 | 112 | 3.0 | 5.0 | 0.00 | 0.27 | 0.27 | 69 | 1016.4 |
| 20260508160121 | 70 | 68 | 3.0 | 5.0 | 0.00 | 0.27 | 0.27 | 71 | 1016.9 |
| 20260508155120 | 70 | 158 | 2.0 | 4.0 | 0.00 | 0.27 | 0.27 | 71 | 1016.9 |
| 20260508154552 | 69 | 112 | 3.0 | 4.0 | 0.00 | 0.27 | 0.27 | 72 | 1016.9 |
| 20260508154037 | 69 | 180 | 2.0 | 3.0 | 0.00 | 0.27 | 0.27 | 74 | 1016.9 |
| 20260508153531 | 69 | 225 | 2.0 | 3.0 | 0.00 | 0.27 | 0.27 | 73 | 1016.9 |
| 20260508153029 | 69 | 225 | 2.0 | 4.0 | 0.00 | 0.27 | 0.27 | 75 | 1016.9 |
| 20260508152518 | 68 | 45 | 2.0 | 4.0 | 0.00 | 0.27 | 0.27 | 75 | 1016.9 |
| 20260508152002 | 69 | 112 | 2.0 | 3.0 | 0.00 | 0.27 | 0.27 | 76 | 1017.1 |
| 20260508151458 | 69 | 225 | 2.0 | 3.0 | 0.00 | 0.27 | 0.27 | 76 | 1017.1 |
| 20260508150954 | 68 | 225 | 1.0 | 3.0 | 0.00 | 0.27 | 0.27 | 76 | 1017.1 |
| 20260508150444 | 67 | 225 | 2.0 | 3.0 | 0.00 | 0.27 | 0.27 | 76 | 1017.1 |
| 20260508145929 | 67 | 68 | 2.0 | 3.0 | 0.00 | 0.27 | 0.27 | 78 | 1017.1 |
| 20260508145423 | 67 | 248 | 2.0 | 3.0 | 0.00 | 0.27 | 0.27 | 78 | 1017.1 |
| 20260508144920 | 67 | 90 | 2.0 | 3.0 | 0.00 | 0.27 | 0.27 | 78 | 1017.1 |
| 20260508144411 | 66 | 135 | 2.0 | 3.0 | 0.00 | 0.27 | 0.27 | 80 | 1017.1 |
| 20260508143855 | 65 | 202 | 2.0 | 3.0 | 0.00 | 0.27 | 0.27 | 79 | 1017.1 |
| 20260508143351 | 65 | 135 | 2.0 | 3.0 | 0.00 | 0.27 | 0.27 | 80 | 1017.3 |
| 20260508143107 | 65 | 112 | 2.0 | 3.0 | 0.00 | 0.27 | 0.27 | 82 | 1017.3 |
| 20260508142337 | 65 | 158 | 1.0 | 3.0 | 0.00 | 0.27 | 0.27 | 82 | 1017.3 |
| 20260508142043 | 63 | 158 | 2.0 | 3.0 | 0.00 | 0.27 | 0.27 | 84 | 1017.3 |
| 20260508141317 | 63 | 180 | 1.0 | 3.0 | 0.00 | 0.27 | 0.27 | 85 | 1017.3 |
| 20260508141019 | 63 | 112 | 2.0 | 4.0 | 0.00 | 0.27 | 0.27 | 86 | 1017.3 |
| 20260508140302 | 63 | 90 | 2.0 | 4.0 | 0.00 | 0.27 | 0.27 | 87 | 1017.3 |
| 20260508135749 | 63 | 112 | 1.0 | 3.0 | 0.00 | 0.27 | 0.27 | 87 | 1017.4 |
| 20260508135151 | 62 | 180 | 0.0 | 3.0 | 0.01 | 0.27 | 0.27 | 88 | 1017.4 |
| 20260508134635 | 62 | 22 | 2.0 | 3.0 | 0.01 | 0.27 | 0.27 | 88 | 1017.2 |
| 20260508134120 | 61 | 225 | 1.0 | 3.0 | 0.01 | 0.27 | 0.27 | 89 | 1017.2 |
| 20260508133833 | 61 | 180 | 2.0 | 3.0 | 0.01 | 0.27 | 0.27 | 90 | 1017.2 |
| 20260508133046 | 61 | 158 | 0.0 | 2.0 | 0.01 | 0.27 | 0.27 | 90 | 1017.4 |
| 20260508132541 | 61 | 112 | 0.0 | 2.0 | 0.01 | 0.27 | 0.27 | 90 | 1017.4 |
| 20260508132032 | 61 | 158 | 0.0 | 2.0 | 0.01 | 0.27 | 0.27 | 90 | 1017.4 |
| 20260508131519 | 60 | 90 | 0.0 | 2.0 | 0.01 | 0.27 | 0.27 | 90 | 1017.4 |
| 20260508131012 | 60 | 112 | 0.0 | 0.0 | 0.01 | 0.27 | 0.27 | 90 | 1017.7 |
| 20260508130508 | 60 | 112 | 0.0 | 0.0 | 0.01 | 0.27 | 0.27 | 90 | 1017.7 |
| 20260508125945 | 60 | 112 | 0.0 | 0.0 | 0.04 | 0.27 | 0.27 | 90 | 1017.6 |
| 20260508125444 | 60 | 225 | 0.0 | 0.0 | 0.04 | 0.27 | 0.27 | 90 | 1017.6 |
| 20260508124938 | 60 | 292 | 0.0 | 0.0 | 0.03 | 0.26 | 0.26 | 90 | 1017.6 |
| 20260508124436 | 60 | 270 | 0.0 | 0.0 | 0.03 | 0.26 | 0.26 | 90 | 1017.7 |
| 20260508123907 | 60 | 225 | 0.0 | 0.0 | 0.03 | 0.26 | 0.26 | 90 | 1017.7 |
| 20260508123337 | 60 | 202 | 0.0 | 0.0 | 0.03 | 0.26 | 0.26 | 90 | 1017.8 |
| 20260508122827 | 60 | 202 | 0.0 | 0.0 | 0.03 | 0.26 | 0.26 | 90 | 1017.8 |
| 20260508122257 | 60 | 248 | 0.0 | 0.0 | 0.03 | 0.26 | 0.26 | 90 | 1017.5 |
| 20260508121743 | 60 | 225 | 0.0 | 0.0 | 0.03 | 0.26 | 0.26 | 90 | 1017.5 |
| 20260508121237 | 60 | 45 | 0.0 | 2.0 | 0.04 | 0.26 | 0.26 | 90 | 1017.5 |
| 20260508120955 | 60 | 135 | 1.0 | 2.0 | 0.04 | 0.26 | 0.26 | 90 | 1017.5 |
| 20260508120223 | 60 | 158 | 0.0 | 2.0 | 0.01 | 0.23 | 0.23 | 90 | 1017.5 |
| 20260508115710 | 60 | 225 | 0.0 | 2.0 | 0.01 | 0.23 | 0.23 | 90 | 1017.3 |
| 20260508115413 | 60 | 270 | 1.0 | 3.0 | 0.01 | 0.23 | 0.23 | 90 | 1017.3 |
| 20260508114635 | 60 | 180 | 2.0 | 3.0 | 0.01 | 0.23 | 0.23 | 90 | 1017.4 |
| 20260508114130 | 60 | 158 | 1.0 | 3.0 | 0.01 | 0.23 | 0.23 | 90 | 1017.4 |
| 20260508113607 | 60 | 180 | 1.0 | 2.0 | 0.01 | 0.23 | 0.23 | 90 | 1017.4 |
| 20260508113107 | 60 | 270 | 0.0 | 0.0 | 0.02 | 0.23 | 0.23 | 90 | 1017.3 |
| 20260508112537 | 60 | 202 | 0.0 | 2.0 | 0.03 | 0.23 | 0.23 | 90 | 1017.3 |
| 20260508112255 | 60 | 180 | 1.0 | 2.0 | 0.06 | 0.23 | 0.23 | 90 | 1017.4 |
| 20260508111512 | 60 | 90 | 0.0 | 3.0 | 0.06 | 0.23 | 0.23 | 90 | 1017.4 |
| 20260508111005 | 60 | 90 | 1.0 | 3.0 | 0.05 | 0.22 | 0.22 | 90 | 1018.1 |
| 20260508110451 | 60 | 112 | 0.0 | 0.0 | 0.05 | 0.22 | 0.22 | 90 | 1018.1 |
| 20260508110139 | 60 | 202 | 0.0 | 2.0 | 0.05 | 0.22 | 0.22 | 90 | 1017.4 |
| 20260508105406 | 60 | 248 | 0.0 | 2.0 | 0.05 | 0.22 | 0.22 | 90 | 1017.4 |
| 20260508104836 | 60 | 180 | 0.0 | 3.0 | 0.05 | 0.22 | 0.22 | 90 | 1017.4 |
| 20260508104332 | 60 | 112 | 1.0 | 3.0 | 0.05 | 0.22 | 0.22 | 90 | 1017.9 |
| 20260508103811 | 60 | 270 | 2.0 | 3.0 | 0.05 | 0.22 | 0.22 | 90 | 1017.9 |
| 20260508103302 | 60 | 270 | 0.0 | 2.0 | 0.05 | 0.22 | 0.22 | 89 | 1017.3 |
| 20260508103023 | 60 | 90 | 0.0 | 3.0 | 0.04 | 0.21 | 0.21 | 89 | 1017.3 |
| 20260508102256 | 60 | 270 | 2.0 | 3.0 | 0.01 | 0.18 | 0.18 | 89 | 1016.4 |
| 20260508102155 | 60 | 270 | 0.0 | 0.0 | 0.00 | 0.17 | 0.17 | 89 | 1016.4 |
| 20260508102146 | 60 | 202 | 0.0 | 0.0 | 0.00 | 0.17 | 0.17 | 89 | 1016.4 |
| 20260508100730 | 60 | 202 | 0.0 | 0.0 | 0.00 | 0.17 | 0.17 | 89 | 1016.3 |
| 20260508100223 | 60 | 202 | 0.0 | 0.0 | 0.01 | 0.17 | 0.17 | 89 | 1016.3 |
| 20260508100205 | 60 | 180 | 0.0 | 0.0 | 0.01 | 0.17 | 0.17 | 89 | 1016.4 |
| 20260508095209 | 60 | 180 | 0.0 | 0.0 | 0.01 | 0.17 | 0.17 | 89 | 1016.4 |
| 20260508094640 | 60 | 180 | 0.0 | 1.0 | 0.01 | 0.17 | 0.17 | 89 | 1016.7 |
| 20260508094344 | 60 | 202 | 0.0 | 1.0 | 0.01 | 0.17 | 0.17 | 89 | 1016.7 |
| 20260508093621 | 60 | 180 | 0.0 | 0.0 | 0.01 | 0.17 | 0.17 | 89 | 1016.7 |
| 20260508093116 | 60 | 202 | 0.0 | 0.0 | 0.03 | 0.17 | 0.17 | 89 | 1016.6 |
| 20260508092606 | 60 | 202 | 0.0 | 0.0 | 0.04 | 0.17 | 0.17 | 89 | 1016.6 |
| 20260508092023 | 60 | 180 | 0.0 | 2.0 | 0.04 | 0.17 | 0.17 | 89 | 1016.8 |
| 20260508091744 | 60 | 158 | 0.0 | 2.0 | 0.08 | 0.17 | 0.17 | 89 | 1016.8 |
| 20260508090954 | 60 | 225 | 0.0 | 2.0 | 0.16 | 0.17 | 0.17 | 89 | 1017.0 |
| 20260508090425 | 60 | 180 | 0.0 | 2.0 | 0.16 | 0.16 | 0.16 | 89 | 1017.0 |
| 20260508085856 | 60 | 225 | 0.0 | 0.0 | 0.16 | 0.16 | 0.16 | 88 | 1017.5 |
| 20260508085350 | 60 | 225 | 0.0 | 3.0 | 0.16 | 0.16 | 0.16 | 88 | 1017.5 |
| 20260508084845 | 60 | 270 | 2.0 | 3.0 | 0.16 | 0.16 | 0.16 | 88 | 1017.5 |
| 20260508084321 | 60 | 270 | 1.0 | 3.0 | 0.16 | 0.16 | 0.16 | 87 | 1016.1 |
| 20260508083821 | 60 | 180 | 2.0 | 3.0 | 0.16 | 0.16 | 0.16 | 87 | 1016.1 |
| 20260508083316 | 60 | 112 | 2.0 | 3.0 | 0.14 | 0.14 | 0.14 | 87 | 1017.4 |
| 20260508082814 | 61 | 90 | 0.0 | 2.0 | 0.13 | 0.13 | 0.13 | 87 | 1017.4 |
| 20260508082228 | 61 | 158 | 0.0 | 1.0 | 0.13 | 0.13 | 0.13 | 87 | 1017.6 |
| 20260508081719 | 61 | 225 | 0.0 | 2.0 | 0.13 | 0.13 | 0.13 | 85 | 1017.6 |
| 20260508081219 | 62 | 225 | 1.0 | 2.0 | 0.09 | 0.09 | 0.09 | 84 | 1017.6 |
| 20260508080713 | 62 | 90 | 1.0 | 2.0 | 0.01 | 0.01 | 0.01 | 83 | 1018.5 |
| 20260508080435 | 62 | 225 | 0.0 | 0.0 | 0.00 | 0.00 | 0.00 | 82 | 1018.5 |
| 20260508075700 | 62 | 248 | 0.0 | 0.0 | 0.00 | 0.00 | 0.00 | 82 | 1018.4 |
| 20260508075111 | 62 | 225 | 0.0 | 0.0 | 0.00 | 0.00 | 0.00 | 82 | 1018.4 |
| 20260508074602 | 61 | 248 | 0.0 | 0.0 | 0.00 | 0.00 | 0.00 | 82 | 1018.0 |
| 20260508074048 | 61 | 225 | 0.0 | 0.0 | 0.00 | 0.00 | 0.00 | 81 | 1018.0 |
| 20260508073518 | 61 | 270 | 0.0 | 0.0 | 0.00 | 0.00 | 0.00 | 81 | 1017.8 |
| 20260508073011 | 61 | 202 | 0.0 | 0.0 | 0.00 | 0.00 | 0.00 | 81 | 1017.8 |
| 20260508072509 | 61 | 180 | 0.0 | 0.0 | 0.00 | 0.00 | 0.00 | 81 | 1017.8 |
| 20260508071939 | 61 | 225 | 0.0 | 0.0 | 0.00 | 0.00 | 0.00 | 81 | 1018.0 |
| 20260508071428 | 61 | 202 | 0.0 | 0.0 | 0.00 | 0.00 | 0.00 | 81 | 1018.0 |
| 20260508070914 | 61 | 202 | 0.0 | 0.0 | 0.00 | 0.00 | 0.00 | 81 | 1018.0 |
| 20260508070642 | 61 | 202 | 0.0 | 0.0 | 0.00 | 0.00 | 0.00 | 81 | 1018.0 |
| 20260508065905 | 61 | 180 | 0.0 | 0.0 | 0.00 | 0.00 | 0.00 | 81 | 1018.3 |
| 20260508065406 | 61 | 135 | 0.0 | 0.0 | 0.00 | 0.00 | 0.00 | 81 | 1018.3 |
| 20260508064826 | 61 | 270 | 0.0 | 0.0 | 0.00 | 0.00 | 0.00 | 81 | 1018.3 |
| 20260508064312 | 61 | 270 | 0.0 | 0.0 | 0.00 | 0.00 | 0.00 | 81 | 1018.5 |
| 20260508063807 | 61 | 270 | 0.0 | 0.0 | 0.00 | 0.00 | 0.00 | 80 | 1018.5 |
| 20260508063303 | 61 | 270 | 0.0 | 0.0 | 0.00 | 0.00 | 0.00 | 80 | 1018.6 |
| 20260508062753 | 61 | 180 | 0.0 | 0.0 | 0.00 | 0.00 | 0.00 | 80 | 1018.6 |
| 20260508062223 | 61 | 180 | 0.0 | 1.0 | 0.00 | 0.00 | 0.00 | 80 | 1018.5 |
| 20260508061708 | 61 | 158 | 0.0 | 1.0 | 0.00 | 0.00 | 0.00 | 80 | 1018.5 |
| 20260508061203 | 61 | 202 | 0.0 | 0.0 | 0.00 | 0.00 | 0.00 | 80 | 1018.4 |
| 20260508060701 | 61 | 225 | 0.0 | 0.0 | 0.00 | 0.00 | 0.00 | 80 | 1018.4 |
| 20260508060150 | 61 | 112 | 0.0 | 0.0 | 0.00 | 0.00 | 0.00 | 80 | 1018.4 |
| 20260508055621 | 61 | 202 | 0.0 | 0.0 | 0.00 | 0.00 | 0.00 | 80 | 1018.3 |
| 20260508055051 | 61 | 202 | 0.0 | 0.0 | 0.00 | 0.00 | 0.00 | 79 | 1018.3 |
| 20260508054802 | 61 | 158 | 0.0 | 0.0 | 0.00 | 0.00 | 0.00 | 79 | 1018.5 |
| 20260508054007 | 61 | 180 | 0.0 | 0.0 | 0.00 | 0.00 | 0.00 | 79 | 1018.5 |
| 20260508053503 | 61 | 90 | 0.0 | 0.0 | 0.00 | 0.00 | 0.00 | 79 | 1018.7 |
| 20260508053000 | 61 | 180 | 0.0 | 0.0 | 0.00 | 0.00 | 0.00 | 78 | 1018.7 |
| 20260508052622 | 61 | 180 | 0.0 | 0.0 | 0.00 | 0.00 | 0.00 | 78 | 1018.6 |
| 20260508052126 | 61 | 158 | 0.0 | 0.0 | 0.00 | 0.00 | 0.00 | 78 | 1018.6 |
| 20260508051351 | 61 | 112 | 0.0 | 0.0 | 0.00 | 0.00 | 0.00 | 78 | 1018.6 |
| 20260508050823 | 62 | 158 | 0.0 | 0.0 | 0.00 | 0.00 | 0.00 | 78 | 1018.5 |
| 20260508050524 | 62 | 158 | 0.0 | 0.0 | 0.00 | 0.00 | 0.00 | 78 | 1018.5 |
| 20260508045803 | 62 | 202 | 0.0 | 0.0 | 0.00 | 0.00 | 0.00 | 78 | 1018.6 |
| 20260508045259 | 62 | 180 | 0.0 | 0.0 | 0.00 | 0.00 | 0.00 | 78 | 1018.6 |
| 20260508044730 | 62 | 225 | 0.0 | 0.0 | 0.00 | 0.00 | 0.00 | 78 | 1018.3 |
| 20260508044219 | 62 | 248 | 0.0 | 0.0 | 0.00 | 0.00 | 0.00 | 78 | 1018.3 |
| 20260508043705 | 62 | 270 | 0.0 | 0.0 | 0.00 | 0.00 | 0.00 | 78 | 1018.3 |